IRIDIUM 75 [+]

Last updated on Thu Jun 14 2018 00:20:17 GMT+0000 (Coordinated Universal Time)

1 25346U 98032E 18164.25296956 .00000161 00000-0 50589-4 0 9995 2 25346 86.3976 73.2364 0002184 83.4233 276.7211 14.34223740 51422

Satellite not in orbit

IRIDIUM 75 [+]